Binghamton, NY

4:00 PM EST on December 12, 2019 (GMT -0500)
Binghamton Regional-Link

Weather History for KBGM - May, 2019

Change the Weather History Date:

Sunday, May 12, 2019

  Actual Average Record
Temperature  
Mean Temperature 42 °F 55 °F  
Max Temperature 46 °F 64 °F 83 °F (1985)
Min Temperature 37 °F 45 °F 31 °F (1988)
Degree Days  
Heating Degree Days 23 11  
Month to date heating degree days 132 150  
Since 1 July heating degree days 6922 6949  
Cooling Degree Days 0 0  
Month to date cooling degree days 0 0  
Year to date cooling degree days 0 4  
Moisture  
Dew Point 37 °F    
Average Humidity 80    
Maximum Humidity 100    
Minimum Humidity 60    
Precipitation  
Precipitation 0.67 in 0.11 in 1.06 in (2000)
Month to date precipitation 2.43 1.30  
Year to date precipitation 13.91 12.48  
Snow  
Snow 0.00 in 0.00 in 0.60 in (1996)
Month to date snowfall 0.0 0.1  
Since 1 July snowfall 81.4 83.4  
Snow Depth 0.00 in    
Sea Level Pressure  
Sea Level Pressure 29.92 in    
Wind  
Wind Speed 10 mph (East)    
Max Wind Speed 16 mph    
Max Gust Speed 21 mph    
Visibility 6 miles    
Events Rain    
T = Trace of Precipitation, MM = Missing Value Source: NWS Daily Summary

Daily Weather History Graph

Daily Weather History Graph

Search for Another Location

Airport or City:

Astronomy

May. 12, 2019 Rise Set
Actual Time 5:46 AM EDT 8:14 PM EDT
Civil Twilight 5:14 AM EDT 8:46 PM EDT
Nautical Twilight 4:35 AM EDT 9:26 PM EDT
Astronomical Twilight 3:51 AM EDT 10:10 PM EDT
Moon 1:04 PM EDT 2:34 AM EDT
Length of Visible Light 15h 32m
Length of Day
14h 28m
First Quarter, 57% of the Moon is Illuminated
May 12
First Quarter
May 18
Full
May 26
Last Quarter
Jun 3
New
Jun 10
First Quarter

Hourly Weather History & Observations

Time (EDT) Temp. Windchill Dew Point Humidity Pressure Visibility Wind Dir Wind Speed Gust Speed Precip Events Conditions
12:53 AM 46.0 °F 41.0 °F 34.0 °F 63% 29.99 in 10.0 mi NE 10.4 mph - N/A   Overcast
1:53 AM 46.0 °F 41.9 °F 34.0 °F 63% 29.97 in 10.0 mi ENE 8.1 mph - N/A   Overcast
2:53 AM 45.0 °F 40.6 °F 35.1 °F 68% 29.96 in 10.0 mi ENE 8.1 mph - 0.00 in   Overcast
3:53 AM 44.1 °F 40.8 °F 37.0 °F 76% 29.95 in 10.0 mi East 5.8 mph - 0.00 in Rain Light Rain
4:53 AM 42.1 °F 36.6 °F 37.0 °F 82% 29.96 in 10.0 mi ENE 9.2 mph - 0.03 in Rain Light Rain
5:53 AM 41.0 °F 34.7 °F 36.0 °F 82% 29.96 in 10.0 mi ENE 10.4 mph - 0.00 in   Overcast
6:40 AM 41.0 °F 35.2 °F 35.1 °F 79% 29.96 in 10.0 mi East 9.2 mph - 0.00 in Rain Light Rain
6:53 AM 39.9 °F 32.9 °F 36.0 °F 86% 29.98 in 6.0 mi East 11.5 mph - 0.01 in Rain Light Rain
7:53 AM 39.0 °F 31.8 °F 37.0 °F 93% 29.96 in 8.0 mi East 11.5 mph 21.9 mph 0.02 in Rain Light Rain
8:20 AM 39.9 °F 32.9 °F 37.9 °F 93% 29.94 in 10.0 mi East 11.5 mph - 0.01 in Rain Light Rain
8:48 AM 39.2 °F 31.6 °F 37.4 °F 93% 29.92 in 2.0 mi East 12.7 mph 20.7 mph 0.03 in Rain Light Rain
8:53 AM 39.0 °F 31.4 °F 37.9 °F 96% 29.94 in 2.0 mi East 12.7 mph - 0.03 in Rain Light Rain
9:03 AM 39.9 °F 32.5 °F 37.9 °F 93% 29.91 in 7.0 mi East 12.7 mph - 0.00 in Rain Light Rain
9:27 AM 39.9 °F 32.5 °F 37.9 °F 93% 29.91 in 10.0 mi East 12.7 mph - 0.01 in Rain Light Rain
9:53 AM 39.9 °F 34.5 °F 37.9 °F 93% 29.95 in 4.0 mi East 8.1 mph - 0.02 in Rain Light Rain
10:07 AM 39.9 °F 33.9 °F 39.0 °F 97% 29.91 in 2.0 mi East 9.2 mph - 0.00 in Rain Rain
10:21 AM 39.9 °F 32.5 °F 39.0 °F 97% 29.91 in 2.0 mi East 12.7 mph - 0.03 in Rain Rain
10:42 AM 39.9 °F 32.9 °F 39.0 °F 97% 29.91 in 3.0 mi East 11.5 mph - 0.07 in Rain Rain
10:53 AM 39.9 °F 32.9 °F 39.0 °F 97% 29.93 in 3.0 mi East 11.5 mph - 0.08 in Rain Light Rain
11:43 AM 39.9 °F 33.9 °F 39.0 °F 97% 29.91 in 3.0 mi East 9.2 mph - 0.10 in Rain Rain
11:53 AM 39.9 °F 33.9 °F 39.0 °F 97% 29.93 in 3.0 mi East 9.2 mph - 0.13 in Rain Rain
11:57 AM 39.9 °F 32.9 °F 39.0 °F 97% 29.90 in 2.0 mi ENE 11.5 mph - 0.01 in Rain Rain
12:35 PM 39.9 °F 33.9 °F 39.0 °F 97% 29.89 in 2.0 mi East 9.2 mph - 0.12 in Rain Rain
12:53 PM 39.9 °F 32.5 °F 39.0 °F 97% 29.92 in 2.0 mi East 12.7 mph - 0.18 in Rain Rain
1:08 PM 39.9 °F 32.9 °F 39.0 °F 97% 29.89 in 9.0 mi East 11.5 mph - 0.02 in Rain Light Rain
1:15 PM 39.9 °F 32.9 °F 39.0 °F 97% 29.89 in 10.0 mi East 11.5 mph 18.4 mph 0.02 in Rain Light Rain
1:34 PM 39.9 °F 32.1 °F 39.0 °F 97% 29.89 in 10.0 mi East 13.8 mph 18.4 mph 0.03 in Rain Light Rain
1:53 PM 39.9 °F 32.5 °F 39.0 °F 97% 29.91 in 10.0 mi East 12.7 mph - 0.04 in Rain Light Rain
2:53 PM 39.9 °F 33.9 °F 37.9 °F 93% 29.89 in 10.0 mi ENE 9.2 mph - 0.01 in Rain Light Rain
3:53 PM 39.9 °F 32.9 °F 37.9 °F 93% 29.90 in 5.0 mi East 11.5 mph - 0.02 in Rain Light Rain
4:09 PM 39.9 °F 32.9 °F 37.9 °F 93% 29.86 in 10.0 mi East 11.5 mph - 0.00 in   Overcast
4:53 PM 39.9 °F 32.9 °F 37.9 °F 93% 29.90 in 10.0 mi East 11.5 mph - 0.00 in   Overcast
5:53 PM 39.0 °F 31.8 °F 37.0 °F 93% 29.91 in 5.0 mi East 11.5 mph - 0.00 in Rain Light Rain
6:53 PM 37.9 °F 30.9 °F 37.0 °F 97% 29.90 in 6.0 mi ENE 10.4 mph - 0.05 in Rain Light Rain
7:53 PM 37.9 °F 31.5 °F 37.0 °F 97% 29.90 in 5.0 mi ENE 9.2 mph - 0.01 in   Overcast
8:18 PM 37.9 °F 31.5 °F 37.0 °F 97% 29.87 in 2.5 mi East 9.2 mph - 0.01 in Rain Light Rain
8:37 PM 37.9 °F 31.5 °F 37.0 °F 97% 29.87 in 2.5 mi East 9.2 mph - 0.01 in Rain Light Rain
8:53 PM 37.9 °F 32.1 °F 37.0 °F 97% 29.91 in 2.5 mi East 8.1 mph - 0.01 in Rain Light Rain
9:53 PM 37.0 °F 30.4 °F 36.0 °F 96% 29.91 in 2.5 mi East 9.2 mph - 0.01 in   Overcast
10:53 PM 37.0 °F 31.0 °F 37.0 °F 100% 29.92 in 2.5 mi East 8.1 mph - 0.01 in Rain Light Rain
11:53 PM 37.9 °F 32.1 °F 37.0 °F 97% 29.91 in 2.5 mi East 8.1 mph - 0.01 in   Overcast